Yakima, WA

1:41 PM PDT on August 18, 2017 (GMT -0700)
Yakima Air Term-McAllister

Weather History for KYKM - August, 2013

Change the Weather History Date:

Tuesday, August 27, 2013

  Actual Average Record
Temperature  
Mean Temperature 68 °F 67 °F  
Max Temperature 86 °F 84 °F 100 °F (1972)
Min Temperature 49 °F 49 °F 39 °F (1960)
Degree Days  
Heating Degree Days 0 1  
Month to date heating degree days 0 20  
Since 1 June heating degree days 39 139  
Since 1 July heating degree days 0 41  
Cooling Degree Days 3 3  
Month to date cooling degree days 245 147  
Year to date cooling degree days 808 427  
Since 1 June cooling degree days 756 407  
Growing Degree Days 17 (Base 50)    
Moisture  
Dew Point 51 °F    
Average Humidity 61    
Maximum Humidity 89    
Minimum Humidity 32    
Precipitation  
Precipitation 0.00 in 0.01 in 0.40 in (1975)
Month to date precipitation 0.15 0.22  
Year to date precipitation 4.32 4.73  
Snow  
Snow 0.00 in 0.00 in 0.00 in (2002)
Month to date snowfall 0.0 0.0  
Year to date snowfall 1.1 8.6  
Since 1 July snowfall 0.0 0.0  
Snow Depth 0.00 in    
Sea Level Pressure  
Sea Level Pressure 29.87 in    
Wind  
Wind Speed 4 mph (West)    
Max Wind Speed 10 mph    
Max Gust Speed 14 mph    
Visibility 10 miles    
Events      
T = Trace of Precipitation, MM = Missing Value Source: NWS Daily Summary

Daily Weather History Graph

Daily Weather History Graph

Search for Another Location

Airport or City:

Trip Planner

Search our weather history database for the weather conditions in past years. The results will help you decide how hot, cold, wet, or windy it might be!

Date:

Astronomy

Aug. 27, 2013 Rise Set
Actual Time 6:16 AM PDT 7:50 PM PDT
Civil Twilight 5:44 AM PDT 8:21 PM PDT
Nautical Twilight 5:05 AM PDT 8:59 PM PDT
Astronomical Twilight 4:24 AM PDT 9:41 PM PDT
Moon 11:19 PM PDT (8/27) 1:46 PM PDT (8/27)
Length of Visible Light 14h 37m
Length of Day
13h 33m
Waning Gibbous, 56% of the Moon is Illuminated
Aug 27
Waning Gibbous
Aug 28
Last Quarter
Sep 5
New
Sep 12
First Quarter
Sep 19
Full

Hourly Weather History & Observations

Time (PDT) Temp. Heat Index Dew Point Humidity Pressure Visibility Wind Dir Wind Speed Gust Speed Precip Events Conditions
12:53 AM 55.9 °F - 48.9 °F 77% 29.93 in 10.0 mi West 5.8 mph - N/A   Clear
1:53 AM 54.0 °F - 48.0 °F 80% 29.94 in 10.0 mi WNW 4.6 mph - N/A   Clear
2:53 AM 53.1 °F - 48.0 °F 83% 29.94 in 10.0 mi West 3.5 mph - N/A   Clear
3:53 AM 51.1 °F - 48.0 °F 89% 29.94 in 10.0 mi West 3.5 mph - N/A   Clear
4:53 AM 50.0 °F - 46.9 °F 89% 29.94 in 10.0 mi NW 3.5 mph - N/A   Clear
5:53 AM 50.0 °F - 46.0 °F 86% 29.96 in 10.0 mi West 8.1 mph - N/A   Clear
6:53 AM 52.0 °F - 48.0 °F 86% 29.96 in 10.0 mi Calm Calm - N/A   Partly Cloudy
7:53 AM 60.1 °F - 51.1 °F 72% 29.96 in 10.0 mi Calm Calm - N/A   Partly Cloudy
8:53 AM 64.9 °F - 51.1 °F 61% 29.96 in 10.0 mi WNW 3.5 mph - N/A   Partly Cloudy
9:53 AM 70.0 °F - 52.0 °F 53% 29.94 in 10.0 mi WNW 3.5 mph - N/A   Scattered Clouds
10:53 AM 73.0 °F - 51.1 °F 46% 29.92 in 10.0 mi Calm Calm - N/A   Scattered Clouds
11:53 AM 78.1 °F - 52.0 °F 40% 29.90 in 10.0 mi ESE 6.9 mph - N/A   Scattered Clouds
12:53 PM 81.0 °F - 52.0 °F 36% 29.87 in 10.0 mi East 6.9 mph - N/A   Clear
1:53 PM 82.0 °F 81.2 °F 53.1 °F 37% 29.86 in 10.0 mi ESE 6.9 mph - N/A   Clear
2:53 PM 84.0 °F - 52.0 °F 33% 29.83 in 10.0 mi Variable 6.9 mph - N/A   Clear
3:53 PM 84.9 °F - 51.1 °F 31% 29.81 in 10.0 mi ESE 6.9 mph - N/A   Clear
4:53 PM 84.0 °F - 51.1 °F 32% 29.79 in 10.0 mi East 4.6 mph - N/A   Scattered Clouds
5:53 PM 82.9 °F - 51.1 °F 33% 29.78 in 10.0 mi Calm Calm - N/A   Clear
6:53 PM 82.9 °F 81.8 °F 53.1 °F 36% 29.75 in 10.0 mi WNW 6.9 mph - N/A   Clear
7:53 PM 75.0 °F - 57.0 °F 53% 29.75 in 10.0 mi Calm Calm - N/A   Clear
8:53 PM 72.0 °F - 55.9 °F 57% 29.75 in 10.0 mi West 5.8 mph - N/A   Clear
9:53 PM 71.1 °F - 57.0 °F 61% 29.77 in 10.0 mi West 4.6 mph - N/A   Clear
10:53 PM 69.1 °F - 55.0 °F 61% 29.78 in 10.0 mi Variable 4.6 mph - N/A   Clear
11:53 PM 64.9 °F - 55.0 °F 70% 29.78 in 10.0 mi West 6.9 mph - N/A   Clear